Regional Weather Roundup
Issued by NWS Goodland, KS

Home | Current Version | Previous Version | Text Only | Print | Product List | Glossary On
Versions: 1 2 3 4 5 6 7 8 9 10 11 12 13 14 15 16 17 18 19 20 21 22 23 24 25 26 27 28 29 30 31 32 33 34 35 36 37 38 39 40 41 42 43 44 45 46 47 48 49 50
000
ASUS43 KGLD 051408
RWRGLD

GOODLAND FORECAST AREA HOURLY WEATHER ROUNDUP
NATIONAL WEATHER SERVICE GOODLAND KS
700 AM MST THU MAR 05 2015

...OFFICIAL OBSERVATIONS...

CITY           SKY/WX    TMP DP  RH WIND       PRES   REMARKS
GOODLAND KS    CLEAR     16   9  74 W10       30.27F WCI   4
HILL CITY KS   PTCLDY     8   1  73 CALM      30.40S
IMPERIAL NEB     N/A      7   2  80 S5        30.28S
MCCOOK NEB     CLEAR     10   2  69 E3        30.35S
AKRON CO       CLEAR     15   5  64 SW10      30.20R WCI   2
BURLINGTON CO  CLEAR     16   8  71 W9        30.26S
LIMON CO       PTCLDY    -5 -11  75 N5        30.22R
$$

...UNOFFICIAL OBSERVATIONS...

CITY           SKY/WX    TMP DP  RH WIND       PRES   REMARKS
COLBY KS       CLEAR     14  12  92 W5        30.32R
GOVE KS          N/A      9  32 100 MISG        N/A
NORTON KS      CLEAR     10   1  67 CALM      30.38R
SHARON SPRINGS   N/A     17  13  84 CALM        N/A
TRIBUNE KS     CLEAR     18  16  93 W14       30.33  WCI   4
KIT CARSON CO    N/A     11   7  82 MISG        N/A
YUMA CO          N/A     11   4  73 CALM        N/A
$$



USA.gov is the U.S. government's official web portal to all federal, state and local government web resources and services.